RH
43 43 44 43 44 47 49 51 53 54 54 55 56 58 59 59 59 59 58 57 56 55 54 54 53 51 51 50 49 49 48 49 47 44 40 34 29 24 19 15 13 12 12 12 13 13 14 14 14 14 14 13 13 12 11 10 9 8 7 6 6 6 5 5 5 4 4 4 4 3 3 3 3 3 3 3 3 3 2 2 2 2 2 2 2
45 46 47 48 49 51 52 54 56 58 58 59 60 60 60 59 59 58 58 57 57 57 56 55 55 53 52 52 51 51 49 47 43 37 31 25 19 16 14 13 13 14 15 16 16 16 16 16 16 16 16 15 14 13 12 11 10 9 8 7 7 7 6 6 6 5 5 5 4 4 4 4 4 3 3 3 3 3 3 3 2 2 2 2 2
48 49 50 51 52 55 57 59 61 62 62 61 62 61 61 60 60 60 60 60 60 59 59 58 57 56 56 54 53 51 46 39 32 26 21 18 15 15 15 15 16 16 17 16 16 16 15 15 15 15 14 14 14 14 13 12 11 10 9 9 9 8 8 7 7 7 6 6 6 5 5 4 4 4 4 5 4 4 4 4 4 3 3 3 3
50 51 53 54 57 60 62 63 63 63 63 63 64 63 63 64 64 64 64 63 62 61 61 60 60 59 57 54 49 44 37 29 23 19 17 16 16 16 16 15 15 14 13 13 13 13 13 12 12 13 13 13 13 13 13 12 12 11 11 11 11 10 10 9 9 9 8 9 9 7 6 6 5 5 5 5 6 6 5 5 5 5 5 4 4
55 56 58 60 63 64 65 66 66 66 67 68 68 68 68 68 68 67 67 66 65 64 64 63 62 60 56 53 45 35 27 22 19 17 17 16 15 14 12 10 9 9 9 10 10 11 11 11 11 12 13 13 13 13 13 13 13 13 13 13 12 12 11 11 10 10 11 11 11 11 10 9 7 6 5 5 6 7 7 7 7 6 6 6 5
63 63 64 65 67 68 69 70 70 71 73 74 73 73 73 72 71 70 69 68 68 66 65 63 61 57 53 48 40 31 24 20 19 17 16 13 11 8 7 7 7 7 8 9 10 10 10 11 11 12 12 13 13 13 14 14 13 14 14 14 13 13 12 12 11 12 12 12 12 12 13 12 11 10 8 6 5 6 7 8 9 9 8 8 8
69 69 69 71 72 73 74 76 78 79 80 79 79 78 77 76 75 73 72 70 68 65 62 58 54 47 39 32 27 23 21 19 17 14 11 8 7 6 6 7 7 7 8 9 9 10 11 12 12 12 13 13 14 14 15 15 15 14 14 14 14 13 13 12 12 13 12 12 12 12 13 13 13 13 12 10 8 6 6 8 10 12 12 11 10
74 75 76 78 78 79 80 83 85 86 86 85 83 82 81 79 77 74 71 68 63 58 53 46 39 32 25 22 20 19 18 16 13 9 8 7 6 6 6 6 7 7 7 8 9 10 11 11 12 14 14 15 15 16 16 16 16 15 14 14 13 13 12 12 12 12 11 11 11 11 11 12 12 13 13 13 12 9 7 8 9 11 13 13 13
79 80 81 82 83 84 86 88 91 91 90 89 87 86 83 80 75 70 65 60 53 47 39 32 27 23 21 20 19 17 14 12 10 8 8 7 7 7 6 6 7 7 8 9 9 9 10 11 13 15 15 16 17 17 17 16 15 15 14 13 12 11 11 10 11 10 10 10 9 10 10 10 10 10 11 12 13 12 9 9 9 9 10 11 12
82 83 84 85 86 88 90 93 95 95 93 92 90 86 81 76 70 63 57 50 43 36 30 26 23 22 20 19 17 14 12 10 10 9 8 8 8 7 7 7 8 8 9 10 10 10 10 12 13 14 15 16 17 16 16 15 14 14 13 12 11 10 9 9 9 8 9 9 8 8 8 8 8 8 9 9 9 10 10 9 9 8 8 8 9
87 87 87 89 91 92 94 97 98 97 94 91 86 80 74 67 60 53 46 40 35 31 27 24 22 21 18 16 15 13 11 10 10 9 9 9 9 8 8 8 9 9 10 10 10 10 11 12 12 13 14 15 15 15 15 14 13 12 11 10 10 9 8 7 7 7 7 7 7 7 7 7 7 7 7 7 7 7 7 8 8 8 7 7 7
90 91 92 93 96 97 98 99 98 94 89 83 77 71 64 56 49 43 37 34 31 28 26 24 22 19 17 16 15 14 13 11 11 10 9 9 9 9 9 9 9 9 9 9 10 10 10 11 11 11 12 13 13 13 13 13 12 11 10 9 8 7 7 6 7 7 7 7 7 7 7 7 7 7 7 7 7 7 7 7 7 7 7 7 7
94 95 97 98 100 100 99 97 92 85 77 72 66 60 53 46 41 37 34 31 28 26 24 22 20 19 18 17 16 15 13 12 11 10 9 9 9 9 9 9 9 9 9 10 10 9 10 10 10 10 10 11 11 11 12 12 11 10 9 7 7 6 6 6 6 7 6 7 7 7 7 7 7 7 7 7 7 7 7 7 7 7 7 7 7
98 99 100 100 100 99 95 89 81 73 67 62 57 50 45 40 37 35 32 29 26 24 23 21 21 20 18 17 15 14 12 11 11 10 10 10 10 10 9 9 9 9 10 10 10 10 10 10 10 10 10 9 9 9 9 10 9 9 9 8 7 6 6 6 6 7 7 6 7 7 7 7 7 7 7 7 7 7 7 7 7 7 7 7 7
100 100 100 100 98 94 88 80 73 66 61 57 51 45 40 37 35 33 29 27 24 23 23 22 21 19 17 15 13 12 11 11 11 11 11 11 11 11 10 10 10 9 10 10 10 10 10 11 11 11 11 10 10 9 8 8 8 8 8 7 7 7 7 7 7 7 7 7 7 7 7 7 7 7 7 7 7 7 7 7 7 8 8 8 7
100 100 99 98 94 88 82 76 70 65 61 55 49 42 38 35 32 29 27 26 25 25 24 21 18 16 14 13 12 12 12 12 12 12 11 11 11 11 10 10 10 9 9 9 9 10 10 10 11 12 12 12 12 12 10 10 9 8 8 7 7 7 7 7 7 7 7 8 8 7 7 8 8 7 7 7 7 7 7 7 7 8 9 8 7
100 98 97 94 89 85 81 76 70 66 62 55 47 40 36 33 30 28 27 27 26 24 21 17 14 13 12 12 12 12 12 12 11 11 11 10 10 10 10 10 10 10 10 10 10 10 10 10 10 10 11 12 13 13 13 13 12 11 11 10 9 9 9 8 8 8 8 8 8 8 8 8 8 7 7 7 7 7 6 6 6 7 8 8 7
98 96 95 92 88 84 80 74 71 67 62 53 44 38 35 32 30 29 28 27 24 19 16 13 12 12 13 13 12 11 11 11 11 11 11 11 11 11 11 11 11 11 11 11 11 10 11 10 10 11 11 12 12 12 13 14 14 14 14 14 13 12 12 11 10 10 9 9 9 8 8 8 7 7 6 6 6 6 6 6 6 6 7 8 7
97 95 94 90 86 81 75 73 71 65 56 47 40 37 34 31 30 29 26 21 17 14 13 12 12 13 12 11 11 11 11 11 12 12 12 12 12 12 12 11 11 12 11 11 11 11 11 11 11 11 12 12 13 13 13 13 13 14 14 14 14 14 13 13 13 12 11 11 10 9 8 8 7 7 6 6 6 6 5 6 7 6 6 7 7
95 95 91 85 79 75 73 71 64 54 46 42 39 36 33 31 28 24 19 14 12 12 12 13 12 12 11 11 11 12 12 13 13 13 12 12 12 12 12 12 11 11 11 11 11 11 11 11 11 11 12 12 13 13 14 14 14 14 14 14 13 13 13 13 13 12 12 11 10 10 9 8 7 6 6 6 6 5 5 6 7 8 8 7 8
94 89 82 75 74 76 72 64 52 45 43 41 38 35 31 27 21 15 12 11 12 12 12 12 11 11 12 12 13 13 13 13 13 13 13 12 12 12 12 11 11 11 11 11 11 11 11 11 11 11 12 12 13 13 14 14 14 14 14 14 14 13 12 12 12 11 11 10 9 9 9 8 7 6 6 6 6 5 6 6 7 9 8 7 10
85 77 73 75 79 78 67 54 47 44 43 39 36 32 25 19 13 11 12 12 13 12 11 11 12 13 14 13 14 14 13 14 13 13 13 12 12 11 11 11 10 10 9 9 9 9 9 9 9 10 11 12 12 13 13 14 14 14 14 14 14 13 13 12 11 11 10 9 8 8 8 8 7 7 6 6 6 6 6 6 6 8 8 7 12
76 74 79 83 81 70 56 49 46 44 40 37 33 25 17 12 11 12 12 12 12 11 12 13 14 14 15 14 14 14 14 14 13 12 12 11 11 10 9 9 8 8 7 7 7 6 7 7 7 8 9 10 11 11 12 13 13 14 14 13 13 12 12 12 11 10 10 9 8 7 8 7 7 6 6 6 6 6 6 6 6 9 10 8 13
84 89 91 84 70 57 51 48 45 41 37 32 24 16 12 11 11 12 12 11 11 12 14 15 15 15 15 15 15 14 14 13 12 11 10 9 9 8 7 7 6 6 6 6 6 5 6 6 6 7 7 8 9 9 10 11 12 13 13 13 12 11 11 11 10 10 9 8 8 8 7 7 7 6 6 6 6 6 6 6 6 7 10 9 12
97 97 87 71 58 53 50 46 41 37 31 22 14 11 11 11 12 11 11 12 13 15 16 16 16 16 15 15 14 13 12 11 10 9 8 8 7 6 6 6 6 6 5 5 6 6 6 6 7 7 8 8 9 9 10 10 11 12 12 12 12 11 10 10 9 9 9 8 8 7 7 7 7 6 6 6 6 6 6 7 7 8 10 12 16
97 86 70 59 55 52 48 42 37 30 21 13 10 10 11 11 11 11 12 14 15 16 16 16 16 16 15 14 13 12 11 9 9 8 7 7 6 6 6 6 6 6 6 6 6 7 7 8 9 9 10 10 10 10 11 11 11 11 11 12 11 11 10 10 9 9 8 8 8 7 7 7 7 7 7 6 6 7 8 8 9 10 15 19 21
86 70 60 56 54 50 45 39 30 19 12 9 10 11 11 11 11 12 14 15 16 16 17 17 16 15 14 12 11 10 9 8 7 7 7 7 6 7 6 6 7 7 7 8 8 9 10 10 11 11 12 12 12 12 11 11 12 11 11 11 11 11 10 10 10 9 8 8 8 8 7 7 7 7 7 7 7 8 10 10 11 15 23 29 29
69 60 57 55 52 48 41 31 20 12 9 9 10 10 10 11 12 14 16 16 17 17 17 17 15 14 13 11 10 9 8 8 7 7 7 7 7 7 7 8 9 9 10 11 12 12 13 13 13 13 14 13 13 13 13 13 13 12 12 12 11 11 11 10 10 9 9 9 8 8 8 8 8 8 8 9 9 11 13 12 15 23 32 39 41
59 58 56 54 51 44 32 20 12 9 9 10 10 10 11 13 15 16 17 17 18 18 16 15 14 12 11 10 9 8 8 8 8 8 8 8 9 9 10 11 12 12 14 14 15 15 15 15 15 15 15 16 15 15 15 15 14 13 13 12 12 12 11 11 11 11 11 11 10 10 9 8 9 10 11 12 13 17 21 19 23 35 46 53 60
60 59 57 53 45 31 18 11 9 9 10 10 10 11 13 15 16 17 18 18 18 17 15 14 13 11 10 9 9 9 9 9 9 9 10 11 12 13 13 14 15 16 16 17 17 17 17 16 17 16 17 17 17 17 17 16 17 19 20 19 17 16 16 15 14 13 14 15 17 18 17 17 18 18 17 20 24 31 37 39 45 58 68 76 85
61 58 55 46 31 18 11 10 10 9 10 10 11 13 15 16 17 18 19 18 17 15 14 13 12 11 10 10 9 10 10 11 11 12 13 14 15 16 17 17 18 18 18 19 18 18 18 19 19 19 19 19 18 19 22 22 24 31 37 39 35 32 31 30 28 26 24 25 28 30 28 29 33 34 35 39 45 52 59 67 76 86 91 95 99
59 54 45 31 18 12 10 10 10 9 10 11 13 16 17 17 19 19 18 17 15 14 13 12 11 11 10 11 11 11 12 13 14 15 16 17 18 18 19 20 20 20 20 20 20 20 20 21 22 22 22 22 22 27 33 36 40 49 60 65 62 55 52 50 50 50 48 47 49 49 44 41 44 54 64 71 75 79 84 91 97 100 100 100 100
55 45 32 20 12 10 10 10 10 10 11 14 16 17 18 19 20 18 17 16 14 13 13 12 12 12 12 12 12 13 14 15 16 17 18 19 20 20 21 22 22 22 22 22 22 23 24 26 28 29 29 30 35 44 51 55 59 67 78 87 88 84 77 73 73 74 74 72 73 73 69 63 63 74 88 94 96 97 98 100 101 100 100 100 100
46 34 22 14 11 10 10 10 11 12 14 17 18 19 20 20 18 17 16 15 14 13 13 13 14 14 14 14 14 14 15 16 17 19 20 21 22 23 24 24 24 24 24 25 26 27 28 31 36 41 44 48 55 61 63 65 69 73 80 91 100 100 96 93 91 91 90 89 90 89 87 85 84 90 97 100 101 101 100 100 100 100 100 100 100
39 27 18 13 11 11 10 11 13 16 18 20 20 20 20 18 17 16 15 14 14 14 15 15 16 16 16 16 15 16 17 18 19 20 21 23 24 25 26 27 27 27 28 29 31 33 34 36 47 60 64 65 69 70 68 69 73 78 85 94 101 102 102 101 100 100 99 99 100 99 97 96 97 99 100 101 101 100 100 100 100 100 100 100 100
34 23 16 12 11 11 12 14 18 20 21 21 20 20 18 17 16 16 15 15 15 16 17 17 17 17 17 17 17 18 18 20 21 21 23 25 26 28 30 30 29 29 31 35 39 41 43 49 61 74 79 77 77 76 75 78 83 90 96 101 102 102 103 103 101 101 101 100 101 101 101 100 100 100 101 100 100 100 100 100 100 100 100 100 100
29 19 14 11 11 13 16 19 21 21 21 21 20 18 17 16 16 16 15 16 17 17 18 18 18 18 19 20 21 21 21 22 23 24 25 28 29 31 34 35 33 32 34 40 42 43 51 65 76 84 89 89 83 82 87 94 98 101 101 101 101 101 100 100 100 100 100 100 100 100 100 100 100 100 101 100 100 100 100 100 100 100 100 100 100
24 15 12 12 15 18 20 21 20 20 20 20 18 17 17 17 16 16 16 17 18 18 19 19 20 21 21 23 24 24 24 25 25 27 29 31 33 36 39 39 38 35 37 44 47 46 56 72 85 93 99 98 94 94 98 99 100 101 100 99 100 99 97 97 99 100 100 100 101 100 100 100 100 100 100 100 100 100 100 100 100 100 100 100 100
17 13 13 16 19 20 20 20 20 20 20 18 17 17 17 17 16 17 18 18 19 20 20 20 21 22 23 25 26 27 28 28 28 29 32 35 37 40 43 43 41 40 43 49 53 56 60 73 90 100 102 103 103 100 96 95 98 100 100 100 100 100 98 98 100 101 102 103 103 103 101 100 101 101 100 100 100 100 100 100 100 100 100 100 100
13 14 17 19 20 19 20 20 20 20 18 17 17 17 17 17 17 18 19 19 20 21 21 21 22 23 25 27 28 29 30 31 31 32 34 40 43 45 47 46 42 43 48 53 60 66 67 75 93 103 103 103 105 99 94 96 100 101 100 100 99 100 100 100 100 100 101 102 103 103 102 101 100 100 100 100 100 100 100 100 99 100 101 101 100
14 17 19 20 20 20 20 20 19 18 18 17 18 17 17 18 18 19 20 21 21 22 22 23 24 26 27 29 31 33 33 33 35 35 37 44 50 53 53 49 45 48 53 57 66 71 70 78 94 104 104 102 102 99 98 100 100 100 100 101 100 99 100 100 100 100 100 100 101 101 101 100 100 100 100 100 100 100 100 100 98 97 99 102 102
17 19 20 21 21 21 20 19 18 18 18 18 18 17 18 20 20 21 22 22 23 24 24 26 27 28 30 32 33 35 36 36 38 39 41 47 54 60 60 55 52 54 57 63 71 73 72 79 91 100 101 98 97 98 100 100 100 100 100 100 100 100 100 100 100 100 100 100 100 100 100 100 100 100 100 100 100 100 100 100 98 94 97 102 103
19 20 21 21 21 20 19 18 18 19 18 19 18 18 20 21 22 23 24 24 25 26 27 28 29 30 32 34 36 36 38 40 41 43 47 52 57 63 64 61 59 59 62 68 73 74 74 80 87 91 92 91 93 98 101 100 99 99 99 99 99 99 100 100 100 100 100 100 100 100 100 100 100 100 100 100 100 100 100 100 99 98 99 101 102
21 21 21 21 20 19 18 18 19 19 19 19 19 20 22 24 25 25 25 26 27 28 29 30 31 33 35 36 37 38 39 42 44 46 50 56 62 67 67 65 64 66 69 73 75 74 74 79 83 84 84 87 92 97 102 103 98 95 98 100 99 99 100 100 100 100 100 100 100 100 100 100 100 100 100 100 100 100 100 100 100 100 100 100 100
21 21 21 21 20 18 18 19 20 20 20 20 21 22 24 26 27 27 27 28 28 29 30 31 33 36 37 37 38 38 40 44 47 49 54 59 64 69 71 69 67 70 76 79 76 74 74 78 82 80 78 84 92 97 103 104 96 93 98 101 99 100 100 100 100 101 100 100 100 100 100 100 100 100 100 100 100 101 100 100 100 100 100 100 100
21 21 21 20 19 18 19 19 20 21 21 21 23 25 26 28 29 29 30 30 30 31 32 33 36 38 39 39 39 39 40 43 47 51 58 65 70 73 74 74 73 74 80 83 80 75 74 76 79 77 74 79 88 97 104 100 91 92 100 100 97 99 100 99 100 101 100 100 100 100 100 100 100 100 100 100 100 101 101 100 100 100 100 100 100
21 21 21 20 19 19 19 20 20 21 21 23 25 27 29 30 31 32 32 33 33 34 35 36 38 40 41 41 40 39 40 42 45 49 56 65 74 78 78 79 79 78 80 84 82 77 73 72 73 73 71 72 80 93 102 97 88 93 102 99 96 98 100 100 100 100 100 100 100 100 100 100 100 100 100 100 101 101 101 101 100 100 100 100 100
22 21 21 19 19 19 20 20 21 21 22 24 26 28 31 32 33 34 35 36 37 38 39 40 41 42 43 42 42 41 41 42 44 48 55 63 72 78 80 82 85 88 88 86 84 81 78 75 76 77 76 71 70 80 91 93 92 96 101 100 98 98 99 100 100 100 100 100 100 100 100 100 100 100 100 100 101 101 101 100 100 100 100 100 101
22 22 21 19 19 20 20 21 22 22 23 25 28 30 33 34 36 38 39 40 41 43 44 45 45 45 45 45 44 44 43 43 44 47 54 64 73 81 83 82 87 97 101 97 92 93 91 85 83 88 90 83 74 71 79 90 96 99 100 101 101 100 100 100 100 100 100 100 100 100 100 100 100 100 100 100 100 101 100 100 100 100 100 100 100
23 22 21 19 19 20 21 22 22 23 24 27 29 32 35 37 40 42 43 44 45 47 50 51 51 50 49 48 47 47 46 46 46 46 50 57 68 82 92 91 88 94 102 103 100 99 99 96 94 97 100 97 90 85 89 95 95 92 96 101 102 100 100 100 100 100 100 100 100 100 100 100 100 100 100 100 100 100 100 100 100 100 100 100 100
24 22 21 20 20 20 21 23 23 24 25 28 31 34 37 40 43 45 47 48 49 50 53 55 56 56 55 53 52 50 49 49 49 49 49 50 54 67 85 96 97 95 98 103 104 103 101 100 99 99 101 101 98 96 100 102 94 85 88 95 98 99 102 101 100 100 100 100 101 100 100 100 100 100 100 100 100 100 100 100 100 100 100 100 100
Wind_Speed
22 21 20 21 22 22 22 22 21 19 18 18 18 18 18 19 20 21 23 24 25 27 28 30 32 33 34 35 36 38 40 42 43 45 46 47 48 49 49 49 49 50 50 51 52 52 52 52 51 50 50 50 50 49 49 48 48 49 50 50 50 50 50 50 51 53 54 53 53 52 51 51 50 50 49 48 47 47 47 47 47 47 47 48 48
22 21 22 22 22 22 22 20 18 18 18 18 19 19 20 21 23 24 25 27 28 30 31 33 34 36 37 39 40 42 43 45 46 47 48 48 49 50 50 51 51 51 51 52 52 53 53 52 52 51 51 51 50 50 49 48 48 48 49 50 51 52 51 50 51 53 54 55 55 55 53 51 50 51 50 49 49 48 48 48 48 47 47 47 48
23 22 23 23 22 22 20 19 18 18 19 20 20 21 22 24 25 26 27 29 30 32 34 35 37 39 40 42 44 45 46 47 48 48 49 50 50 51 52 52 53 53 52 52 52 52 52 51 51 50 50 50 50 49 48 48 47 48 49 50 51 52 52 51 51 53 55 55 56 57 56 54 51 49 49 49 49 49 49 48 48 47 47 47 48
23 23 23 23 22 21 20 19 20 20 20 20 21 22 24 25 26 28 30 31 33 35 37 38 40 41 43 44 46 47 48 47 47 48 49 50 50 50 51 51 52 52 51 50 49 48 48 48 48 48 48 49 49 49 48 48 48 48 49 50 51 52 53 52 52 52 54 55 56 57 57 57 55 52 50 49 48 49 49 49 48 48 47 47 47
23 23 23 22 22 20 20 20 19 19 19 20 22 23 25 27 28 30 32 34 36 38 39 41 43 44 45 46 47 48 48 48 48 48 48 49 50 50 50 49 49 49 48 47 46 45 45 45 45 45 46 47 47 48 48 48 48 49 49 50 51 52 53 53 52 52 52 54 55 56 56 57 57 55 55 53 50 48 48 48 48 48 47 46 47
22 22 22 21 20 19 19 18 18 19 20 21 23 25 27 29 31 33 35 37 39 40 42 44 46 47 49 50 50 51 50 51 51 51 51 51 50 49 47 46 45 45 44 44 43 43 43 42 43 43 43 44 45 46 47 48 49 49 50 50 51 52 53 54 53 51 52 53 54 55 55 57 57 56 57 57 54 51 49 49 48 47 48 47 47
22 21 21 19 18 18 18 18 18 19 21 23 26 28 30 32 34 36 38 40 41 43 44 46 48 49 50 51 52 52 52 52 52 52 51 50 47 45 43 42 42 42 42 42 42 42 42 42 42 42 43 43 43 44 45 46 48 49 49 50 51 51 52 53 53 51 52 53 53 54 55 56 56 57 57 58 58 55 51 50 48 47 47 48 48
21 20 19 18 17 17 17 18 20 21 24 26 28 31 33 35 37 39 40 42 43 44 46 47 49 50 50 51 51 52 52 52 50 48 47 45 43 42 41 40 40 40 41 41 42 42 42 42 42 42 42 42 42 43 44 45 46 47 48 49 50 51 52 53 53 52 52 52 52 53 55 55 55 56 56 56 58 59 55 51 49 48 47 48 48
22 21 19 18 17 18 19 20 22 24 26 29 31 34 36 38 39 40 42 43 44 45 46 47 48 49 50 50 51 51 50 49 47 45 44 42 41 40 40 39 39 39 39 40 40 42 42 42 42 41 41 41 42 42 43 44 45 46 48 49 50 50 51 52 52 52 52 52 52 52 53 54 55 56 56 56 57 59 58 54 51 50 50 48 46
22 20 19 18 19 20 21 23 25 27 30 32 35 37 38 40 41 42 43 44 45 46 47 47 48 48 49 50 50 49 47 46 45 43 42 42 41 40 39 39 38 38 37 38 39 40 41 41 41 42 42 42 42 42 43 44 44 46 47 49 50 51 51 51 52 52 52 52 52 52 52 53 54 55 56 56 56 58 60 57 53 51 52 51 48
20 19 19 20 21 22 24 26 28 30 33 35 37 39 40 41 42 44 45 45 46 47 47 48 48 48 49 48 48 47 46 45 43 42 42 41 41 40 40 39 39 38 38 38 39 39 39 40 42 43 43 43 44 44 45 45 46 46 47 49 50 51 52 52 53 53 53 54 53 53 53 53 54 55 55 56 57 59 60 60 57 54 54 54 52
20 20 20 21 22 24 26 28 31 33 36 38 40 41 42 43 44 45 46 46 47 47 48 48 47 47 47 46 45 45 44 44 43 43 42 42 41 41 41 41 40 40 40 40 40 40 40 41 42 43 44 45 46 46 47 47 48 48 49 50 51 52 52 53 54 55 55 56 56 56 56 56 56 56 56 57 59 60 61 63 61 59 58 56 54
21 21 22 23 24 26 28 31 35 38 40 42 43 44 45 45 46 47 48 48 48 48 47 47 46 45 44 43 43 42 42 42 42 43 42 42 42 42 43 43 43 42 42 42 42 42 42 43 43 44 45 46 47 48 49 49 50 50 51 51 52 53 54 55 56 56 57 57 58 58 58 59 59 59 59 59 60 61 63 64 63 63 63 60 57
22 23 23 24 26 29 32 36 39 42 44 45 45 46 47 47 48 48 48 48 47 46 46 45 44 42 42 42 42 42 42 42 42 43 43 43 44 44 45 45 45 45 44 44 45 45 45 45 45 46 46 47 48 49 50 51 52 53 53 53 54 54 55 56 57 57 58 58 59 59 60 60 61 61 61 62 62 61 63 64 64 64 65 64 62
23 24 25 27 30 34 37 40 43 45 46 47 47 48 49 49 50 49 48 47 45 44 43 43 41 41 41 41 41 42 42 43 43 43 44 44 45 45 46 46 47 47 47 47 47 47 48 47 48 48 48 49 49 50 51 52 54 55 55 56 56 57 57 58 58 59 60 60 60 61 61 61 61 61 62 63 62 62 62 62 63 64 65 65 65
23 26 28 32 35 39 42 44 46 48 48 48 49 50 50 51 50 49 48 46 45 44 43 42 42 41 42 42 42 42 43 43 43 44 44 44 45 46 46 47 48 48 49 50 50 50 50 50 50 50 51 51 51 52 53 54 55 56 57 58 58 59 60 60 60 61 61 61 61 62 62 62 62 61 62 62 62 62 62 62 62 63 64 65 65
26 30 33 37 40 43 46 48 49 50 50 50 50 52 52 52 51 49 47 45 44 43 43 42 42 42 42 42 43 43 43 44 44 44 45 45 46 46 47 48 48 49 50 51 52 52 53 53 53 53 54 54 54 55 55 56 56 57 58 59 60 60 62 62 62 62 62 62 62 62 63 63 62 62 62 62 62 62 61 61 61 62 62 64 65
32 35 39 42 45 47 50 51 52 52 51 51 52 53 53 51 50 48 47 45 44 44 43 43 43 43 43 43 44 44 44 45 45 46 46 47 48 48 49 49 50 50 51 52 53 54 54 55 56 56 56 56 57 57 58 58 58 59 59 59 60 61 62 63 63 63 63 63 63 63 63 63 62 62 63 62 62 62 61 61 61 61 61 62 63
38 42 44 47 49 52 53 53 53 52 53 53 53 53 52 50 48 46 45 44 44 44 44 43 43 43 44 44 45 46 46 47 47 48 48 49 49 50 50 51 51 52 53 53 54 55 55 56 57 57 57 58 58 59 59 60 60 61 60 61 60 61 62 63 63 63 63 63 64 63 63 63 62 62 62 62 62 62 61 61 61 60 60 61 60
44 46 49 52 53 54 53 53 53 54 55 54 53 52 49 47 46 44 44 43 43 43 43 43 43 43 44 45 45 46 46 47 48 48 49 50 50 51 52 52 53 54 54 55 55 56 57 57 58 59 59 59 60 60 61 61 61 62 62 62 61 61 62 63 63 63 63 63 64 63 63 62 62 62 62 61 62 62 61 61 61 60 59 59 59
47 49 53 54 53 52 52 53 55 55 54 53 51 49 46 45 44 43 42 42 42 42 43 43 43 44 44 45 46 47 47 47 48 49 50 50 51 52 53 54 54 55 56 56 57 58 59 60 60 60 61 61 61 62 62 63 63 63 63 62 62 62 62 62 62 63 62 62 63 63 63 62 61 62 62 61 61 61 61 61 61 60 59 59 58
50 52 53 52 51 51 53 55 54 53 51 49 47 45 43 42 42 42 42 42 42 43 43 44 44 45 46 47 47 48 48 49 49 50 51 52 53 54 55 56 57 57 58 59 60 60 61 62 62 62 63 63 63 63 64 64 64 64 64 63 63 62 62 62 62 62 61 61 62 62 63 62 61 62 62 61 61 61 61 61 61 60 60 59 59
51 51 50 49 51 53 54 53 52 50 48 46 44 43 42 42 41 41 42 42 43 43 44 45 46 47 48 48 49 50 50 51 52 53 54 54 55 56 57 58 59 59 60 61 61 62 62 63 63 63 63 64 64 64 64 65 65 65 64 63 63 62 62 62 62 61 60 60 61 62 62 61 61 62 62 61 61 61 61 61 61 60 60 60 59
48 48 49 51 53 53 52 51 49 48 46 44 43 42 41 41 41 41 42 42 43 44 45 46 47 48 49 50 51 52 52 53 54 55 56 57 57 58 58 59 60 60 61 61 62 62 62 62 62 63 63 63 63 64 64 64 64 64 64 63 62 62 61 61 61 60 60 60 61 61 61 60 61 62 62 61 60 60 61 61 61 61 61 61 60
47 49 53 54 54 52 50 48 47 45 44 43 42 42 41 41 41 42 43 43 44 45 46 48 49 50 51 52 53 54 55 56 56 57 58 58 58 59 59 60 60 61 61 61 61 61 61 61 61 61 62 62 62 62 62 62 62 63 63 62 62 61 60 60 60 59 59 59 60 60 60 60 61 62 61 60 60 60 60 60 60 61 61 61 60
51 55 56 55 52 51 48 47 45 44 43 43 42 41 41 41 42 43 43 44 46 47 48 49 51 52 53 54 55 56 57 57 58 58 59 59 59 60 60 60 61 61 61 61 61 61 60 61 60 60 61 61 60 61 61 61 60 60 61 60 60 60 59 59 58 58 58 58 58 59 59 59 60 60 60 59 58 59 59 60 60 60 61 60 60
56 57 56 54 52 50 48 46 45 44 43 43 42 41 42 42 43 43 45 46 47 48 49 51 53 54 55 56 57 58 58 58 59 59 60 60 60 60 60 60 60 61 61 61 61 60 60 60 60 59 59 59 59 59 59 59 59 59 59 58 58 58 58 58 57 56 56 56 56 57 57 58 59 59 59 58 58 58 59 60 60 60 59 58 58
57 56 54 53 51 49 47 45 44 44 43 42 41 42 42 43 44 45 46 47 48 50 51 53 54 56 56 57 58 58 58 59 59 60 60 60 60 59 59 59 59 60 60 60 60 59 59 59 58 58 58 58 58 58 57 58 57 57 57 56 56 56 56 56 56 55 54 55 55 55 55 56 57 58 57 56 56 58 59 60 60 58 57 56 56
54 53 52 51 49 47 46 45 44 44 43 42 42 43 43 44 45 46 47 48 50 51 53 54 55 56 57 58 58 58 58 59 59 59 59 59 59 58 58 58 58 58 58 58 58 57 57 57 56 56 56 56 56 55 55 55 55 55 55 54 54 54 54 54 54 53 53 53 53 53 54 54 55 55 55 55 55 56 58 59 57 55 54 54 53
53 52 50 49 46 45 44 44 43 43 42 43 43 43 44 45 46 47 48 50 51 53 54 55 56 57 57 57 58 58 58 58 58 58 58 57 57 57 57 57 57 57 56 56 55 55 55 55 55 54 54 54 53 53 52 52 52 52 52 53 53 52 52 52 52 52 51 50 50 51 51 52 52 52 53 53 53 54 54 54 52 50 50 50 50
51 49 48 46 44 43 43 43 42 42 42 43 44 45 45 46 47 49 50 52 53 55 55 56 56 56 57 57 57 57 57 57 57 56 56 55 55 55 56 56 56 55 55 54 53 53 52 52 53 53 52 52 51 50 50 50 49 49 49 50 50 50 50 50 50 50 49 48 48 48 48 49 49 49 50 49 49 49 49 47 45 45 46 47 48
48 46 45 44 42 42 42 42 42 42 43 44 45 46 47 48 49 51 52 53 54 55 55 55 55 56 56 57 57 57 56 55 55 54 54 54 54 54 54 55 54 54 53 52 51 51 51 51 51 51 50 50 49 48 48 47 47 47 46 46 46 47 47 47 47 47 46 46 46 46 46 46 46 45 44 43 43 43 42 40 39 40 40 41 42
45 44 43 42 41 41 41 42 42 43 44 45 46 47 48 49 51 52 53 54 54 54 54 54 55 55 56 56 56 56 55 54 54 54 53 53 53 53 53 53 53 52 51 50 49 49 49 49 49 49 49 48 47 46 45 45 44 43 41 41 42 43 44 44 44 43 44 44 43 43 44 45 44 40 37 37 38 37 36 36 37 38 38 37 35
42 42 41 40 40 40 40 41 42 43 45 45 46 47 48 50 51 52 53 53 53 53 53 53 54 54 55 55 55 55 54 53 53 53 52 52 52 52 52 52 51 50 49 48 48 48 47 46 46 47 47 46 45 44 43 42 40 38 36 35 36 40 41 42 42 41 42 42 42 42 42 42 40 36 32 32 34 34 33 34 36 39 40 39 37
42 42 41 40 39 40 41 42 43 44 45 46 47 48 49 50 51 52 53 52 52 52 53 53 54 54 54 54 54 54 53 52 52 51 51 51 51 51 51 50 49 48 47 46 47 46 46 45 44 44 44 44 43 42 41 40 38 36 35 33 34 37 39 39 39 39 40 41 41 41 41 39 36 32 28 28 30 31 31 32 35 39 41 42 41
42 42 41 40 40 41 42 43 44 45 47 48 49 50 50 51 51 52 52 52 52 52 52 53 53 53 53 53 53 52 52 51 51 50 50 50 50 50 50 49 48 46 45 45 45 44 44 43 42 41 42 42 41 41 41 40 38 36 34 33 34 35 36 37 37 36 38 39 39 40 39 36 32 29 27 26 26 28 28 30 33 38 40 42 42
41 40 39 40 40 41 43 44 45 46 47 49 49 50 51 51 51 51 51 51 51 52 52 53 52 52 52 51 51 51 51 50 50 50 49 49 49 49 48 47 46 45 44 44 43 42 42 41 40 38 38 40 41 42 41 38 35 32 31 31 33 35 35 35 35 34 35 36 36 37 36 33 30 28 26 23 23 24 26 27 30 33 35 36 35
40 39 39 39 40 41 43 44 45 46 48 49 50 50 51 51 51 51 51 51 51 52 52 52 51 51 50 50 50 50 50 50 49 49 49 49 49 48 47 46 45 44 43 42 42 41 40 38 37 35 35 37 40 39 35 31 28 28 29 31 32 34 34 33 32 31 31 31 32 33 32 30 29 28 25 23 22 23 26 26 26 27 28 29 27
39 39 40 40 41 42 43 44 46 47 48 50 50 51 51 50 50 50 50 51 51 51 51 51 50 50 49 49 49 48 49 49 48 48 48 48 48 47 45 44 43 43 43 41 40 40 39 36 34 32 32 34 36 32 27 24 26 27 30 31 31 31 31 30 29 28 28 28 29 30 29 28 28 26 25 24 22 23 26 27 25 25 26 26 25
38 39 40 41 42 43 44 45 47 48 49 51 51 51 50 49 49 50 50 50 50 50 50 50 49 49 48 47 47 47 47 47 48 47 47 46 46 45 44 42 41 42 41 40 38 38 37 35 32 30 30 30 29 26 24 24 27 28 29 30 31 30 29 28 26 25 24 24 25 26 26 26 26 24 24 23 22 23 26 27 27 27 26 24 25
39 40 41 42 42 43 44 46 48 49 50 50 50 50 49 48 49 49 49 50 50 49 49 48 48 47 46 46 46 46 46 46 46 46 45 45 44 43 42 41 41 41 40 38 37 36 35 33 30 27 27 26 22 23 24 25 26 28 29 29 30 30 28 26 24 22 20 19 20 21 22 23 24 24 23 22 21 22 24 27 28 27 25 24 26
39 40 42 42 43 44 45 46 47 48 49 49 50 49 48 48 48 48 49 49 49 48 48 47 47 46 45 45 45 45 45 45 44 44 44 43 42 41 40 40 40 41 39 37 35 34 33 32 28 24 23 21 17 19 23 24 24 27 30 29 27 27 27 27 25 21 18 16 15 16 18 19 21 22 23 22 21 21 22 24 27 26 24 24 25
39 40 41 42 43 44 45 45 47 48 49 49 49 48 47 47 48 48 48 48 48 48 47 46 46 45 45 45 44 44 44 43 43 43 42 42 40 39 38 39 40 40 39 36 34 32 32 31 27 22 20 17 14 16 19 22 22 24 28 29 26 24 24 26 26 23 19 16 13 12 12 14 16 17 19 20 20 20 21 22 23 24 23 22 22
39 40 42 43 44 45 45 46 47 48 48 48 48 48 47 47 47 48 48 47 47 47 46 46 45 45 44 44 43 43 42 42 41 41 41 40 39 38 37 37 39 39 38 36 33 31 31 30 27 22 18 13 10 13 16 20 21 22 25 27 26 24 22 22 25 24 20 16 12 8 7 8 10 12 14 16 18 20 22 23 24 23 22 20 21
40 41 42 44 44 45 46 46 46 47 47 47 47 47 46 46 47 47 47 47 47 46 46 45 45 44 44 43 42 42 41 41 40 40 40 40 39 37 36 36 38 38 37 35 33 31 31 30 27 22 17 11 8 11 16 20 20 21 24 25 25 26 22 19 20 21 18 14 9 6 5 6 8 9 11 14 17 19 21 23 23 24 23 23 23
40 42 43 44 45 45 46 46 46 46 46 46 46 46 46 46 46 46 47 47 46 46 45 45 45 44 44 43 42 41 41 40 39 38 38 39 38 37 36 36 37 37 36 35 33 31 31 30 26 22 18 13 9 10 16 19 19 21 25 25 25 28 25 18 15 16 13 9 6 5 5 7 8 9 11 14 16 18 20 22 23 24 24 23 23
41 42 44 45 45 46 46 47 46 46 46 45 45 45 45 45 45 46 46 46 46 45 45 45 44 44 43 43 42 41 40 39 38 37 37 37 37 36 35 35 37 37 36 35 34 32 31 31 28 23 20 15 12 12 16 19 19 22 26 26 25 27 28 23 15 10 6 4 3 4 5 6 8 9 11 14 16 18 20 21 22 22 21 21 21
42 43 44 45 46 47 47 47 47 46 46 45 45 45 44 44 45 45 45 45 45 44 44 44 44 44 43 42 42 41 41 40 38 37 37 37 36 35 33 33 35 37 37 37 37 35 34 33 31 29 26 21 16 14 15 18 22 24 25 25 25 25 24 22 18 11 6 3 2 3 4 5 5 7 8 10 13 16 18 19 20 20 19 19 20
43 43 44 45 46 47 47 47 46 46 45 45 45 44 44 44 44 44 44 44 43 43 43 43 43 43 43 42 41 41 40 40 39 37 36 35 36 35 33 30 31 34 35 35 36 36 35 34 33 32 31 29 25 20 18 20 24 25 24 23 24 24 22 19 18 14 10 6 4 3 3 3 3 2 3 4 6 8 11 13 16 18 19 19 21
43 44 44 45 46 46 47 46 46 45 45 44 44 44 43 43 42 43 43 43 43 42 42 43 43 43 43 43 42 41 40 40 39 38 36 34 32 32 32 30 28 29 31 31 31 32 32 32 33 32 31 31 31 28 26 26 27 25 22 21 22 22 20 18 16 15 12 8 4 0 3 5 6 5 3 1 1 2 4 6 10 14 17 19 21
43 44 44 45 45 46 46 46 45 45 44 44 43 43 43 42 41 42 42 42 43 43 43 43 44 44 43 43 43 42 41 40 39 38 38 36 32 29 27 27 27 27 28 28 28 28 28 28 30 30 30 31 31 30 29 30 30 27 24 23 23 22 20 17 15 13 12 9 5 3 3 4 4 4 4 4 4 3 4 5 8 12 16 19 21
Wind_Direction
239 235 227 222 220 219 219 222 223 224 226 229 232 238 245 250 256 261 266 270 273 276 280 282 284 286 289 291 291 293 294 295 297 299 300 300 300 300 301 301 301 301 300 299 298 298 297 297 297 297 296 296 295 295 294 294 293 292 291 290 289 288 287 287 287 286 285 284 283 282 281 281 280 279 278 276 274 273 271 270 268 266 265 264 262
231 227 221 219 219 219 220 220 221 225 228 234 239 245 252 257 263 269 273 278 281 285 288 290 292 293 294 295 295 296 298 299 299 300 300 301 302 302 302 302 301 300 299 297 296 296 295 295 295 295 295 294 294 294 293 293 292 292 291 290 289 288 287 287 286 286 286 285 284 282 280 279 279 279 279 277 276 274 272 271 269 268 266 265 264
225 222 221 220 218 217 217 218 222 228 233 240 247 254 260 266 271 276 281 286 289 292 294 295 296 298 298 299 300 300 301 301 302 302 303 303 303 303 302 301 300 298 297 295 295 294 295 295 295 295 295 294 294 294 293 292 291 290 289 289 288 288 287 287 286 286 286 286 285 283 282 279 277 276 277 277 276 275 273 272 270 268 267 266 265
223 222 221 220 219 217 219 224 230 236 243 250 257 264 269 275 280 284 288 291 293 294 296 297 299 300 300 301 302 302 302 302 303 303 303 302 302 301 300 299 298 297 296 296 295 295 295 295 295 295 295 295 294 294 292 291 289 289 288 288 288 287 287 287 286 286 286 286 286 285 284 282 279 276 274 273 274 274 273 273 271 270 268 267 265
222 222 221 220 221 223 227 234 241 247 255 262 268 274 278 283 287 290 292 294 295 297 298 299 299 299 299 299 300 300 300 300 300 300 300 300 300 299 298 297 296 296 296 296 296 296 296 296 296 296 295 294 294 293 292 291 290 289 288 287 287 287 287 287 286 287 287 286 286 286 285 284 282 280 276 273 270 271 272 271 271 270 268 267 266
219 221 223 225 227 232 238 245 253 261 268 275 279 283 287 289 292 294 296 297 298 299 299 299 299 299 299 299 299 299 299 299 300 300 300 299 299 298 297 297 296 296 296 296 297 297 297 297 296 295 294 293 293 292 291 290 290 289 288 287 287 287 287 287 287 287 286 285 285 285 285 284 284 282 280 277 272 270 269 270 270 269 269 267 265
218 222 226 230 236 241 249 258 267 275 280 285 288 290 293 295 297 298 299 300 300 300 300 300 301 301 301 301 301 301 301 302 302 302 301 299 298 297 296 296 296 296 297 298 298 299 299 298 296 295 295 294 293 292 291 290 289 288 288 287 287 286 286 286 286 286 285 284 285 284 284 284 284 283 282 281 277 273 269 269 269 268 268 267 266
219 224 229 235 243 251 260 270 278 284 288 291 293 295 297 299 300 301 301 302 303 303 303 303 303 303 303 303 304 304 304 303 302 301 299 298 297 297 297 296 297 297 298 299 299 299 298 298 297 297 296 295 294 293 292 290 289 288 286 286 285 285 284 284 283 282 282 282 282 282 283 283 283 283 282 282 281 278 273 270 269 268 267 266 267
221 226 232 240 250 260 270 278 285 289 292 295 296 298 300 301 303 304 305 305 305 305 305 305 305 305 305 305 304 304 303 302 301 300 299 298 298 298 298 298 298 299 299 299 299 298 298 298 298 297 296 294 293 291 290 288 287 286 285 284 283 283 282 281 280 280 279 279 279 279 280 281 281 281 281 281 281 280 278 274 270 269 268 266 266
226 232 240 250 260 268 276 283 289 293 296 298 299 301 303 304 306 307 307 306 307 307 307 307 307 306 306 305 304 302 301 300 300 300 301 301 300 300 300 300 300 300 299 299 298 298 298 299 298 296 295 293 291 289 287 285 284 283 282 282 282 281 280 279 278 277 277 276 276 276 276 277 278 278 279 278 278 278 278 277 273 270 268 267 266
234 242 250 258 267 274 282 288 293 297 299 301 303 304 306 307 308 309 309 309 309 308 308 308 307 306 305 304 302 301 301 301 301 301 301 301 301 301 301 301 301 301 301 299 298 298 298 297 296 295 295 294 292 290 288 286 284 282 280 279 279 279 278 278 277 277 276 275 274 274 274 273 274 275 276 276 276 276 277 276 275 272 269 267 267
242 250 258 266 275 282 289 294 298 301 303 305 307 308 309 310 311 311 311 311 311 310 309 308 307 305 303 302 302 302 302 302 302 302 302 302 302 303 303 303 303 303 302 301 300 299 298 296 295 294 294 293 292 291 289 287 285 283 280 278 277 276 275 275 275 275 275 275 274 274 274 273 272 272 273 273 274 274 275 275 274 273 270 268 267
250 257 265 274 283 290 296 300 303 306 308 310 311 311 312 313 313 313 313 313 312 310 308 306 304 303 303 303 303 303 303 303 303 303 303 304 304 304 304 304 304 303 302 301 300 299 297 296 294 293 292 291 290 289 288 287 285 283 281 279 277 276 275 273 273 273 273 273 273 273 273 273 273 272 272 272 272 272 273 274 274 273 272 269 267
258 265 273 282 290 297 303 306 310 312 314 315 315 315 315 315 315 315 314 312 310 308 306 304 304 304 304 304 304 304 303 304 304 304 305 305 305 305 304 304 303 302 301 300 299 298 297 295 294 292 291 289 288 287 286 286 285 283 282 280 278 276 275 274 273 272 272 272 272 272 272 272 272 272 272 272 272 272 272 273 274 273 273 271 269
268 275 283 292 299 305 310 313 316 318 318 317 317 317 316 316 316 314 313 311 309 307 307 306 306 306 305 305 305 305 305 305 306 306 306 305 305 304 303 302 302 301 300 299 298 297 296 294 293 292 290 289 287 286 285 284 283 282 281 280 279 277 276 274 273 273 272 272 272 272 271 271 270 271 271 271 271 271 271 272 273 273 273 272 271
280 287 294 302 308 313 317 319 321 320 319 318 318 317 317 317 316 314 313 312 311 311 310 309 308 308 307 307 306 306 306 306 305 304 304 303 303 302 302 302 302 301 300 299 298 296 295 293 292 290 289 287 286 285 284 282 281 280 279 278 277 277 276 275 274 273 272 272 272 272 271 271 271 271 271 270 270 270 270 271 272 272 272 272 271
293 300 306 312 315 319 321 322 322 321 319 319 319 318 318 317 316 315 315 314 313 312 310 309 308 308 308 307 307 306 305 304 304 303 304 304 304 303 303 302 301 300 299 298 298 297 295 294 292 291 289 287 286 284 283 282 280 279 279 278 277 276 275 274 274 273 273 272 272 271 271 271 271 271 271 271 270 270 270 270 270 270 270 271 270
305 310 315 319 321 322 323 323 322 320 319 319 319 319 319 318 318 316 315 314 312 310 309 308 308 307 307 307 306 306 305 305 305 306 306 305 305 304 303 302 301 300 300 299 298 297 295 294 293 291 290 288 286 284 283 282 280 279 278 278 277 276 275 274 273 273 273 272 272 271 271 271 271 271 271 271 271 270 270 269 269 269 269 269 270
314 318 321 323 323 324 323 323 321 320 319 319 319 319 318 318 316 314 313 311 309 309 308 308 308 308 307 307 307 307 307 307 307 307 306 305 305 304 304 303 303 302 301 299 298 296 295 294 292 291 290 288 287 285 284 283 281 280 279 278 277 277 276 275 274 274 273 272 272 271 270 270 270 270 270 270 270 270 270 269 269 269 269 269 269
319 321 323 323 323 322 322 321 321 320 319 319 318 317 316 314 312 311 309 308 307 307 307 307 307 308 307 307 307 307 307 307 307 306 306 306 305 305 304 304 303 302 300 299 298 297 295 294 293 292 290 289 288 287 285 284 282 281 280 279 278 277 276 275 274 274 273 272 272 271 270 269 269 269 268 268 268 269 269 269 269 269 269 269 269
319 320 320 320 320 320 320 320 319 318 317 316 315 314 312 310 309 307 307 306 306 307 307 307 307 308 307 307 307 307 307 307 307 307 306 306 306 305 304 303 302 301 300 299 298 297 296 295 294 292 291 290 289 288 286 285 283 282 281 280 279 278 277 276 274 273 273 272 271 270 269 269 268 268 267 267 267 267 268 268 268 269 268 269 269
317 317 317 318 318 318 319 318 316 315 314 313 311 310 308 307 306 306 306 307 307 308 308 308 309 309 309 309 309 308 308 308 308 308 307 307 306 305 305 304 303 302 301 300 299 298 297 295 294 293 291 290 289 288 287 285 284 283 282 280 279 278 277 276 275 273 272 272 271 270 269 268 268 267 267 267 266 266 267 267 267 268 268 268 269
316 316 317 317 317 317 316 315 314 312 311 310 309 308 307 307 307 307 308 308 309 309 310 311 311 311 311 311 310 310 310 310 309 309 308 308 307 307 306 306 305 304 303 302 300 299 297 296 294 293 292 290 289 287 286 285 284 283 282 281 280 279 277 276 275 274 272 271 270 270 269 268 268 267 267 266 266 266 266 266 266 266 267 267 267
316 316 316 316 316 315 315 314 313 311 311 311 310 308 307 308 308 309 310 311 311 312 313 313 313 313 312 312 312 312 311 311 311 310 310 309 309 309 308 307 306 305 304 303 301 300 299 297 296 295 293 291 290 288 286 285 284 283 282 281 280 279 278 277 275 274 273 271 270 269 268 268 267 267 267 266 266 266 265 266 266 266 266 266 266
315 315 316 316 316 316 315 313 312 311 312 311 309 308 308 309 311 312 313 314 315 315 316 315 315 314 313 313 313 313 312 312 312 312 311 311 311 310 309 308 307 306 305 304 302 302 301 300 298 297 295 294 292 290 289 287 285 284 283 282 281 280 278 277 276 274 272 271 270 269 268 267 267 266 266 266 266 266 265 265 264 264 264 264 264
315 317 317 317 316 316 314 313 312 312 311 310 309 309 311 312 313 315 316 317 317 318 317 317 316 315 315 314 314 314 314 314 314 313 313 313 312 311 311 310 309 307 306 305 305 304 303 302 301 299 298 296 295 293 291 290 288 286 284 283 281 280 278 277 276 274 272 271 269 268 267 266 266 265 265 265 264 264 263 263 262 262 262 262 262
317 318 317 316 316 315 314 312 312 312 311 310 311 312 313 315 316 318 319 319 319 319 318 318 317 316 315 315 315 315 316 315 315 315 314 314 313 313 312 311 310 309 308 308 307 306 305 304 303 302 300 299 297 295 294 292 290 288 287 284 283 281 279 277 276 274 273 271 269 268 267 266 265 265 264 263 262 262 261 261 261 260 260 260 260
316 316 315 315 315 314 313 313 313 312 311 312 313 315 316 318 319 320 320 320 320 319 319 318 317 316 316 316 317 317 317 316 316 316 315 315 315 314 313 312 311 311 310 310 309 308 307 306 305 303 302 300 298 297 295 294 292 290 289 286 284 282 280 279 277 275 273 271 270 268 267 266 265 265 264 263 262 261 260 260 260 259 258 258 258
316 315 315 315 315 314 314 314 313 313 313 314 316 317 318 319 320 321 321 320 320 319 318 318 318 318 318 318 318 318 318 318 317 317 317 316 316 315 314 313 313 312 311 311 310 310 308 307 305 304 302 301 299 298 296 295 294 292 290 288 285 283 281 279 277 275 273 272 270 269 268 266 265 264 263 262 260 259 259 260 260 259 257 257 256
317 316 316 316 315 315 314 314 314 314 314 316 317 319 320 321 321 321 321 320 320 319 319 319 319 319 319 319 319 319 319 319 318 318 318 317 316 316 315 314 313 312 312 312 311 310 309 307 305 304 302 301 300 299 298 297 295 294 292 290 287 285 282 280 277 275 273 271 269 268 267 266 265 264 262 261 259 258 258 259 259 258 256 255 254
317 316 316 316 315 315 314 314 314 315 317 318 319 320 321 322 322 322 322 321 321 321 320 320 320 320 320 320 320 320 320 320 319 318 318 317 316 315 314 313 312 312 312 312 312 310 309 307 306 305 304 303 302 302 301 299 297 295 293 291 288 286 283 281 279 276 274 272 269 267 265 264 263 262 261 260 259 257 257 257 255 254 253 252 251
317 317 316 316 315 315 315 315 316 318 319 320 321 322 322 323 323 323 322 322 322 321 321 321 321 321 321 320 320 320 320 320 319 318 317 317 316 314 313 313 312 313 313 313 312 311 309 308 308 307 306 306 305 304 303 301 299 298 296 293 290 286 283 280 278 276 274 272 269 267 266 264 262 260 260 260 259 257 256 253 249 247 247 248 249
317 317 316 316 316 317 317 318 319 320 321 321 322 323 323 323 323 323 323 322 322 322 322 322 322 321 321 321 321 321 321 320 319 318 317 316 315 314 314 313 313 314 314 314 313 311 311 311 311 310 309 308 308 308 306 304 303 301 298 295 291 286 283 280 277 274 271 269 267 266 265 264 263 261 259 258 257 255 253 248 242 237 236 237 238
318 317 317 317 318 319 319 320 321 321 321 322 322 323 323 323 323 323 323 322 322 322 322 322 322 322 322 322 322 321 321 320 319 318 317 316 315 315 315 315 315 316 316 316 314 313 314 314 314 313 312 311 312 312 310 309 309 307 303 298 291 285 282 279 275 271 269 266 265 263 263 263 265 264 260 256 254 252 249 244 237 231 229 228 227
320 319 320 320 321 321 321 322 322 322 322 322 323 323 324 324 324 323 323 323 322 323 323 323 324 324 323 323 322 321 320 319 319 318 317 317 317 316 316 316 317 318 318 317 316 316 317 316 316 315 315 315 316 317 318 319 319 316 311 303 294 287 283 279 274 270 266 264 263 262 262 264 266 264 259 253 251 250 248 241 234 229 227 227 226
321 321 322 322 323 323 322 322 322 323 323 323 324 324 324 325 324 324 323 323 323 324 324 325 325 324 323 322 321 321 320 320 319 319 319 319 318 318 318 318 319 320 319 319 319 319 319 319 318 318 318 319 321 323 325 326 323 319 313 306 298 292 287 281 277 270 265 263 263 263 265 266 266 262 256 249 248 251 249 242 233 229 228 230 231
321 321 322 323 323 323 322 322 322 323 323 323 324 324 324 325 324 324 324 324 324 325 325 325 324 324 323 323 322 322 321 321 321 321 321 320 319 319 320 320 321 321 320 320 321 321 320 320 320 321 322 322 323 326 327 325 322 319 314 307 302 297 292 286 281 275 269 266 265 265 267 266 262 258 253 246 243 248 251 244 235 230 229 232 233
321 321 322 323 323 322 322 322 323 323 323 323 324 324 325 325 325 325 325 325 325 326 326 325 325 324 324 324 323 323 323 323 323 322 322 321 320 321 322 322 323 322 321 322 323 321 321 322 321 323 324 322 321 325 326 325 328 328 323 315 307 303 300 296 289 282 275 270 266 265 264 261 258 256 252 243 237 241 247 244 237 233 231 231 230
322 322 322 323 323 323 323 323 323 323 324 324 325 326 326 326 325 325 325 325 326 326 326 326 326 326 326 325 324 324 324 324 324 324 323 322 321 322 323 324 323 322 322 325 324 321 322 322 322 323 323 319 319 324 330 336 339 335 328 324 319 312 309 306 299 289 279 271 266 263 259 256 256 256 253 245 235 236 243 242 236 232 232 230 230
322 322 322 323 323 324 324 324 324 324 325 325 325 326 326 325 325 325 325 326 326 326 327 326 326 326 326 325 325 325 325 325 325 324 323 323 322 323 324 324 323 322 323 326 324 321 322 322 322 323 320 315 319 329 338 343 341 334 329 326 324 322 319 313 306 297 286 275 267 263 259 255 253 252 251 247 238 234 240 243 239 234 233 233 236
322 322 322 323 324 325 325 325 325 325 325 325 325 326 325 325 325 325 326 327 327 327 327 327 327 326 326 326 327 327 326 326 325 324 324 323 324 324 325 325 323 322 325 327 325 322 322 321 322 323 316 311 321 336 338 337 336 334 332 325 321 323 326 321 314 306 294 282 270 263 260 256 251 247 244 245 240 233 236 242 241 236 234 238 242
322 322 323 323 324 324 325 325 325 325 325 325 325 325 325 325 326 326 327 328 328 328 328 328 327 327 328 328 329 328 327 327 326 325 324 324 325 327 327 326 324 323 326 327 325 323 322 320 322 322 310 306 325 339 334 334 338 340 340 333 324 323 325 325 323 318 309 296 280 267 261 256 252 247 242 242 240 234 235 240 242 242 240 243 246
322 323 323 323 324 325 325 326 325 325 325 325 325 325 326 327 327 328 328 329 329 329 329 328 328 329 330 330 330 329 328 327 327 326 326 325 326 329 329 327 324 324 326 328 326 323 321 320 322 320 305 304 331 344 339 344 351 351 348 343 334 327 322 321 323 325 321 313 299 282 268 258 253 250 244 239 236 232 231 233 238 242 243 245 247
323 323 323 324 324 325 326 326 326 326 326 326 326 326 327 328 328 328 329 330 330 330 330 329 330 331 331 331 330 329 328 328 328 328 327 327 328 330 330 327 325 325 327 327 327 325 322 320 322 319 304 303 335 352 352 356 359 359 355 349 342 336 324 315 317 322 324 322 314 301 285 265 252 247 241 234 230 229 229 228 230 235 236 237 242
324 324 324 324 325 326 327 327 327 326 326 326 326 327 328 329 329 329 330 331 331 331 331 331 332 332 332 331 331 330 329 330 330 330 329 329 330 332 332 328 326 326 327 327 327 326 324 323 323 317 306 305 331 351 357 358 2 6 2 352 347 346 335 314 308 315 321 325 321 303 279 259 248 244 239 235 231 229 230 229 228 230 231 231 235
324 324 325 325 326 327 327 328 328 327 327 327 327 327 329 329 330 330 331 332 332 333 333 333 333 334 333 332 331 330 330 331 332 332 332 332 332 333 333 330 327 327 327 327 327 326 325 324 323 318 309 306 319 339 347 350 359 8 4 354 353 358 356 340 318 314 319 321 309 285 267 255 250 246 239 236 234 232 232 231 228 228 232 232 233
325 325 326 326 327 327 328 329 329 328 327 327 327 328 329 330 331 331 332 333 333 334 334 335 335 335 334 333 332 331 331 331 333 334 335 334 333 334 334 332 328 328 328 328 327 328 327 326 326 325 318 309 308 321 332 340 350 358 357 354 355 2 7 7 357 342 337 325 285 269 261 252 250 248 240 235 234 232 233 234 232 232 235 235 234
326 326 326 327 327 328 328 329 329 328 327 327 327 328 329 330 331 332 332 333 334 336 336 336 336 336 335 334 334 333 332 332 334 336 337 336 334 334 335 335 331 330 331 330 329 330 330 329 329 329 325 318 310 309 319 331 336 337 341 349 353 356 3 11 11 10 17 21 354 306 293 290 284 273 258 248 243 239 238 236 234 232 232 230 229
326 327 327 327 327 328 328 329 329 328 327 327 327 328 329 331 332 332 332 333 335 337 338 338 338 337 336 335 335 335 334 334 335 336 338 339 337 335 336 337 335 334 333 332 330 331 330 328 328 328 325 321 317 313 315 320 321 319 322 334 344 347 352 360 6 9 10 8 8 9 4 15 25 1 297 264 249 244 241 235 231 227 222 219 220
326 327 327 327 327 328 328 328 328 328 327 327 327 328 329 331 332 332 332 333 335 338 339 339 339 339 338 337 337 336 336 336 336 336 337 338 339 337 337 337 336 335 333 331 330 329 326 324 323 323 320 318 316 314 312 308 305 304 306 313 323 333 341 346 353 1 3 352 334 44 110 107 101 91 83 103 181 210 215 213 213 213 209 208 214
326 327 328 328 328 328 328 328 328 328 327 327 327 327 329 331 331 332 332 333 335 337 338 339 340 340 340 339 338 338 337 337 337 337 336 336 337 338 338 338 337 335 334 332 329 326 323 320 318 316 314 311 310 310 307 302 297 296 297 299 303 311 322 329 335 346 354 348 317 247 175 145 133 116 104 106 118 140 171 184 189 194 198 203 209